| time (UTC) | temp F | wind direction | speed knots | gust knots | rain 1hr in | rain 24hr in | rain mn in | humidity % | barometer mb |
| 20260503054540 | 53 | 220 | 0.0 | 2.6 | 0.00 | 0.00 | 0.00 | 81 | 1016.0 |
| 20260503051531 | 54 | 145 | 0.9 | 2.6 | 0.00 | 0.00 | 0.00 | 77 | 1016.0 |
| 20260503050108 | 55 | 154 | 0.9 | 3.5 | 0.00 | 0.00 | 0.00 | 75 | 1015.9 |
| 20260503044531 | 0 | 0 | 0.0 | 0.0 | 0.00 | 0.00 | 0.00 | 100 | |
| 20260503043032 | 58 | 247 | 0.0 | 1.7 | 0.00 | 0.00 | 0.00 | 69 | 1015.8 |
| 20260503041531 | 60 | 249 | 0.0 | 2.6 | 0.00 | 0.00 | 0.00 | 66 | 1015.7 |
| 20260503040039 | 63 | 237 | 0.9 | 2.6 | 0.00 | 0.00 | 0.00 | 60 | 1015.5 |
| 20260503034532 | 64 | 157 | 1.7 | 4.3 | 0.00 | 0.00 | 0.00 | 60 | 1015.2 |
| 20260503033029 | 65 | 158 | 2.6 | 3.5 | 0.00 | 0.00 | 0.00 | 60 | 1014.9 |
| 20260503031531 | 65 | 157 | 2.6 | 5.2 | 0.00 | 0.00 | 0.00 | 62 | 1014.7 |
| 20260503030032 | 66 | 154 | 1.7 | 3.5 | 0.00 | 0.00 | 0.00 | 63 | 1014.4 |
| 20260503024606 | 67 | 200 | 0.0 | 1.7 | 0.00 | 0.00 | 0.00 | 62 | 1014.2 |
| 20260503023031 | 69 | 202 | 0.0 | 0.0 | 0.00 | 0.00 | 0.00 | 58 | 1014.1 |
| 20260503020106 | 73 | 177 | 1.7 | 2.6 | 0.00 | 0.00 | 0.00 | 50 | 1014.0 |
| 20260503014530 | 75 | 175 | 0.9 | 2.6 | 0.00 | 0.00 | 0.00 | 46 | 1013.9 |
| 20260503013031 | 76 | 145 | 0.0 | 1.7 | 0.00 | 0.00 | 0.00 | 39 | 1014.0 |
| 20260503011528 | 78 | 145 | 0.9 | 5.2 | 0.00 | 0.00 | 0.00 | 37 | 1013.9 |
| 20260503004530 | 78 | 136 | 0.0 | 2.6 | 0.00 | 0.00 | 0.00 | 36 | 1014.0 |
| 20260503000151 | 78 | 61 | 4.3 | 11.3 | 0.00 | 0.00 | 0.00 | 35 | 1014.0 |
| 20260502231532 | 80 | 24 | 3.5 | 10.4 | 0.00 | 0.00 | 0.00 | 32 | 1014.6 |
| 20260502230034 | 81 | 38 | 4.3 | 12.2 | 0.00 | 0.00 | 0.00 | 33 | 1014.7 |
| 20260502224531 | 81 | 102 | 4.3 | 10.4 | 0.00 | 0.00 | 0.00 | 33 | 1014.8 |
| 20260502223108 | 81 | 101 | 5.2 | 11.3 | 0.00 | 0.00 | 0.00 | 33 | 1014.9 |
| 20260502220033 | 80 | 344 | 3.5 | 9.6 | 0.00 | 0.00 | 0.00 | 39 | 1015.1 |
| 20260502214531 | 78 | 356 | 1.7 | 5.2 | 0.00 | 0.00 | 0.00 | 43 | 1015.3 |
| 20260502213108 | 75 | 350 | 1.7 | 5.2 | 0.00 | 0.00 | 0.00 | 46 | 1015.5 |
| 20260502211533 | 74 | 337 | 2.6 | 7.0 | 0.00 | 0.00 | 0.00 | 48 | 1015.7 |
| 20260502210030 | 73 | 294 | 2.6 | 6.1 | 0.00 | 0.00 | 0.00 | 51 | 1015.9 |
| 20260502204530 | 73 | 278 | 2.6 | 5.2 | 0.00 | 0.00 | 0.00 | 52 | 1016.0 |
| 20260502203031 | 73 | 300 | 3.5 | 6.1 | 0.00 | 0.00 | 0.00 | 51 | 1015.9 |
| 20260502201604 | 75 | 277 | 2.6 | 6.1 | 0.00 | 0.00 | 0.00 | 50 | 1016.0 |
| 20260502200029 | 75 | 120 | 1.7 | 5.2 | 0.00 | 0.00 | 0.00 | 49 | 1016.2 |
| 20260502194532 | 73 | 316 | 0.9 | 3.5 | 0.00 | 0.00 | 0.00 | 54 | 1016.4 |
| 20260502191606 | 65 | 46 | 0.9 | 5.2 | 0.00 | 0.00 | 0.00 | 66 | 1016.9 |
| 20260502190028 | 66 | 22 | 0.0 | 1.7 | 0.00 | 0.00 | 0.00 | 62 | 1017.2 |
| 20260502184532 | 67 | 22 | 0.0 | 1.7 | 0.00 | 0.00 | 0.00 | 61 | 1017.6 |
| 20260502183032 | 68 | 24 | 0.9 | 3.5 | 0.00 | 0.00 | 0.00 | 58 | 1017.6 |
| 20260502181531 | 70 | 316 | 0.9 | 3.5 | 0.00 | 0.00 | 0.00 | 57 | 1017.6 |
| 20260502163029 | 59 | 104 | 0.9 | 3.5 | 0.00 | 0.00 | 0.00 | 79 | 1017.3 |
| 20260502151530 | 55 | 157 | 0.0 | 0.0 | 0.00 | 0.00 | 0.00 | 91 | 1017.0 |
| 20260502140106 | 48 | 157 | 0.0 | 0.0 | 0.00 | 0.00 | 0.00 | 92 | 1016.4 |
| 20260502130106 | 48 | 170 | 0.9 | 3.5 | 0.00 | 0.00 | 0.00 | 90 | 1015.8 |
| 20260502123031 | 49 | 180 | 0.0 | 0.0 | 0.00 | 0.00 | 0.00 | 89 | 1016.0 |
| 20260502121527 | 50 | 180 | 0.0 | 0.0 | 0.00 | 0.00 | 0.00 | 88 | 1016.0 |
| 20260502114532 | 51 | 175 | 0.0 | 1.7 | 0.00 | 0.01 | 0.00 | 88 | 1016.3 |
| 20260502113031 | 51 | 159 | 1.7 | 3.5 | 0.00 | 0.01 | 0.00 | 88 | 1016.3 |
| 20260502111529 | 51 | 149 | 1.7 | 3.5 | 0.00 | 0.01 | 0.00 | 87 | 1016.3 |
| 20260502110106 | 52 | 188 | 0.0 | 3.5 | 0.00 | 0.01 | 0.00 | 87 | 1016.4 |
| 20260502103031 | 52 | 152 | 1.7 | 3.5 | 0.00 | 0.01 | 0.00 | 87 | 1016.7 |
| 20260502101530 | 52 | 121 | 0.9 | 2.6 | 0.00 | 0.01 | 0.00 | 88 | 1016.8 |
| 20260502091532 | 50 | 112 | 0.0 | 2.6 | 0.00 | 0.01 | 0.00 | 86 | 1017.0 |
| 20260502071531 | 52 | 156 | 2.6 | 4.3 | 0.00 | 0.01 | 0.00 | 83 | 1017.2 |
| 20260502070030 | 53 | 157 | 0.9 | 2.6 | 0.00 | 0.01 | 0.00 | 83 | 1017.2 |
| 20260502064536 | 54 | 189 | 0.9 | 2.6 | 0.00 | 0.01 | 0.01 | 82 | 1017.3 |
| 20260502063029 | 54 | 122 | 0.0 | 2.6 | 0.00 | 0.01 | 0.01 | 82 | 1017.3 |
| 20260502060032 | 54 | 169 | 0.9 | 3.5 | 0.00 | 0.01 | 0.01 | 79 | 1017.1 |